Location: G�kdere
(37.0328°N, 30.9000°E)
Time: 01:27:57
(UTC+00:00)

Meteor 1-11 Rocket - Pass Details

Date: 03 March 2021
Orbit: 831 x 916 km, 81.2° (Epoch: 22 April)

Event Time Altitude Azimuth Distance (km) Brightness Sun altitude
Rises 17:37:49 0° 183° (S) 3,478 6.8 -21.8°
Reaches altitude 10° 17:40:17 10° 181° (S) 2,530 6.1 -22.2°
Maximum altitude 17:46:01 77° 97° (E) 892 3.6 -23.4°
Drops below altitude 10° 17:51:40 10° 12° (NNE) 2,489 6.1 -24.5°
Sets 17:54:04 0° 11° (N) 3,418 6.9 -25.0°
